[[{"header":{"parameterUnit":"m.s-1","parameterCategory":1,"la1":30.2991,"la2":30.254,"lo1":-89.0895,"lo2":-89.0444,"dy":0.0017,"dx":0.0017,"nx":28,"ny":28,"refTime":"2025-03-17T03:00:00:Z","depth":0,"parameterNumber":2,"parameterNumberName":"U-component_of_WINDS"},"data":[0,0,0,0,0,0,0,0,0,0,0,0,0,0,0,0,0,0,0,0,0,0,0,0,0,0,0,0,0,0,0,0,0,0,0,0,0,0,0,0,0,0,0,0,0,0,0,0,0,0,0,0,0,0,0,0,0,0,6.5177,6.5179,0,6.5306,6.5308,6.5309,6.5244,6.5241,6.5238,6.5235,6.5365,6.5372,6.5378,0,0,0,0,0,0,0,0,0,0,0,0,0,6.4876,6.4882,6.5177,6.5179,6.518,6.5306,6.5308,6.5309,6.5245,6.5241,6.5237,6.5233,6.5363,6.5371,6.5379,0,0,0,0,0,0,0,0,0,0,0,0,0,6.5006,6.4884,6.5177,6.5163,6.5164,6.5306,6.5308,6.531,6.5246,6.5241,6.5236,6.5231,6.5361,6.537,6.538,6.5542,0,0,6.541,6.5415,0,0,0,0,0,0,0,0,6.4999,6.5017,6.5164,6.5165,6.5165,6.5254,6.5249,6.5388,6.5247,6.5215,6.5234,6.5229,6.5332,6.5344,6.5379,6.5548,6.5554,6.5411,6.5417,6.5422,6.5424,0,0,0,0,0,0,0,6.499,6.5011,6.5228,6.5166,6.5167,6.5151,6.5164,6.5275,6.53,6.5217,6.5213,6.5229,6.5332,6.537,6.5382,6.5556,6.5411,6.542,6.5426,6.543,6.5867,6.5872,0,0,0,0,0,0,6.4982,6.5004,6.5224,6.5232,6.5068,6.5161,6.5175,6.5231,6.5299,6.5304,6.5233,6.5225,6.5356,6.5371,6.5386,6.5582,6.5421,6.5431,6.5436,6.5861,6.5868,6.5874,0,0,0,0,0,0,6.4975,6.5002,6.5219,6.5117,6.5144,6.5171,6.5234,6.5236,6.5274,6.5311,6.5315,6.5268,6.5352,6.5372,6.5505,6.5586,6.5435,6.5444,6.5855,6.5863,6.5871,6.5975,0,0,0,0,0,0,6.4967,6.5,6.5061,6.5119,6.5149,6.5335,6.5239,6.5242,6.5292,6.5283,6.5345,6.535,6.535,6.549,6.5515,6.5597,6.5452,6.5848,6.5859,6.5869,6.5964,6.5986,6.6004,0,0,0,0,0,6.4956,6.5085,6.5065,6.5092,6.5227,6.534,6.5357,6.5355,6.5298,6.5361,6.5385,6.5348,6.5573,6.5504,6.5531,6.5618,6.5842,6.5855,6.5868,6.5955,6.5981,6.6004,0,0,0,0,0,0,6.5035,6.5092,6.5071,6.5221,6.5276,6.5329,6.5407,6.5382,6.5454,6.5443,6.5436,6.5451,6.5589,6.5616,6.5538,6.578,6.5699,6.5718,6.5756,6.5782,6.5801,6.5792,6.546,0,0,0,0,0,6.507,6.5157,6.5202,6.5331,6.536,6.5379,6.5428,6.5422,6.5478,6.5501,6.5535,6.5591,6.5674,6.5729,6.5808,6.5968,6.5981,6.6041,6.6061,6.6077,6.6093,6.6182,6.6209,6.5916,6.5916,6.5916,0,0,6.5143,6.5185,6.524,6.5348,6.5389,6.548,6.5399,6.5498,6.5565,6.5516,6.5643,6.567,6.5733,6.588,6.5947,6.5907,6.6178,6.6093,6.6106,6.6114,6.6198,6.6226,6.625,6.5925,6.5923,6.5922,0,0,6.5322,6.5362,6.5475,6.5519,6.5584,6.5597,6.5624,6.5681,6.5697,6.5825,6.5791,6.5871,6.6015,6.6061,6.6104,6.6304,6.6273,6.633,6.6434,6.6521,6.6544,6.6564,6.6637,6.6663,6.6346,6.6346,6.6347,0,6.5405,6.554,6.5536,6.5638,6.5687,6.5648,6.5763,6.5806,6.5893,6.5928,6.5883,6.6065,6.6104,6.6262,6.6311,6.6347,6.6378,6.6323,6.6541,6.6561,6.658,6.6649,6.6677,6.6353,6.6352,6.6352,6.6351,0,6.5639,6.5733,6.5816,6.5903,6.5961,6.6069,6.6082,6.6142,6.6132,6.6149,6.6281,6.6327,6.6416,6.6453,6.6443,6.6611,6.6585,6.6541,6.646,6.6615,6.668,6.6706,6.6362,6.636,6.6358,6.6356,0,0,6.5869,6.5954,6.5985,6.6025,6.6095,6.6168,6.6275,6.6362,6.6414,6.6477,6.6567,6.6691,6.6651,6.67,6.6695,6.6771,6.6928,6.6717,6.6719,6.6756,6.7118,6.7151,6.7182,6.6909,6.6914,6.6918,6.7113,0,6.6054,6.6242,6.6242,6.6415,6.6504,6.6469,6.6563,6.6616,6.6636,6.6714,6.6736,6.6824,6.6765,6.6794,6.6868,6.6893,6.7001,6.6879,6.6993,6.6997,6.6978,6.7215,6.725,6.7432,6.7138,6.7143,6.7146,0,6.6294,6.6366,6.6548,6.6608,6.6645,6.6729,6.681,6.6885,6.6946,6.6955,6.7011,6.6995,6.7105,6.7021,6.7173,6.7091,6.7137,6.7157,6.7164,6.7175,6.7081,6.7233,6.749,6.7518,6.7185,6.7182,6.7179,0,6.6446,6.6588,6.6716,6.6751,6.6823,6.6883,6.6916,6.6972,6.7025,6.7096,6.7131,6.7214,6.7259,6.7324,6.7332,6.727,6.7486,6.7402,6.7497,6.7497,6.7543,6.754,6.7812,6.7573,6.7573,6.7572,6.7572,0,6.6653,6.6766,6.6785,6.6864,6.699,6.699,6.7115,6.7143,6.7194,6.7277,6.7253,6.7332,6.7337,6.7419,6.7425,6.7551,6.7572,6.7583,6.7583,6.7585,6.7584,6.7616,6.7603,6.7579,6.7578,6.7576,6.7575,0,6.6843,6.686,6.6997,6.7055,6.7073,6.7163,6.7213,6.7289,6.7307,6.7414,6.7439,6.7468,6.7563,6.7577,6.7688,6.7693,6.7844,6.7831,6.7824,6.7822,6.7917,6.7908,6.8219,6.826,6.7994,6.7996,6.7998,0,6.6973,6.706,6.7128,6.7183,6.7219,6.7307,6.7362,6.7367,6.7425,6.7502,6.7569,6.7662,6.7736,6.789,6.7921,6.8007,6.7996,6.8099,6.8009,6.8009,6.7999,6.7994,6.8003,6.8117,6.812,6.8122,6.8124,0,6.7204,6.7209,6.7289,6.7374,6.744,6.7506,6.7569,6.7615,6.7627,6.7694,6.7792,6.785,6.7965,6.8058,6.8144,6.8177,6.8154,6.8152,6.8179,6.8182,6.8175,6.8181,6.7872,6.8145,6.8143,6.8141,6.814,6.8139,6.7369,6.7445,6.7505,6.7596,6.7644,6.7704,6.7778,6.7807,6.7888,6.7982,6.798,6.8088,6.8148,6.8261,6.8301,6.8386,6.8352,6.839,6.84,6.841,6.842,6.8161,6.8401,6.8401,6.84,6.84,6.8399,0,6.7599,6.7637,6.772,6.7809,6.7881,6.7853,6.7922,6.7984,6.8079,6.8138,6.8212,6.8326,6.8417,6.8456,6.8545,6.8606,6.8597,6.8629,6.8625,6.8633,6.8444,6.8412,6.8635,6.8635,6.8635,6.8634,6.8634,6.8634,6.7727,6.7855,6.7868,6.8019,6.8056,6.8162,6.8204,6.8259,6.8306,6.8434,6.851,6.8535,6.8587,6.868,6.8762,6.8772,6.8806,6.8843,6.8848,6.867,6.8646,6.8624,6.8594,6.8851,6.8851,6.903,6.9032,6.9033]},{"header":{"parameterUnit":"m.s-1","parameterCategory":1,"la1":30.2991,"la2":30.254,"lo1":-89.0895,"lo2":-89.0444,"dy":0.0017,"dx":0.0017,"nx":28,"ny":28,"refTime":"2025-03-17T03:00:00:Z","depth":0,"parameterNumber":3,"parameterNumberName":"V-component_of_WINDS"},"data":[0,0,0,0,0,0,0,0,0,0,0,0,0,0,0,0,0,0,0,0,0,0,0,0,0,0,0,0,0,0,0,0,0,0,0,0,0,0,0,0,0,0,0,0,0,0,0,0,0,0,0,0,0,0,0,0,0,0,-5.6704,-5.6705,0,-5.6797,-5.6798,-5.6799,-5.6735,-5.6732,-5.6729,-5.6726,-5.6823,-5.6828,-5.6833,0,0,0,0,0,0,0,0,0,0,0,0,0,-5.6472,-5.6477,-5.6704,-5.6705,-5.6706,-5.6797,-5.6798,-5.6799,-5.6735,-5.6732,-5.6728,-5.6725,-5.6821,-5.6827,-5.6834,0,0,0,0,0,0,0,0,0,0,0,0,0,-5.657,-5.6478,-5.6703,-5.6685,-5.6684,-5.6797,-5.6798,-5.68,-5.6736,-5.6731,-5.6727,-5.6723,-5.6819,-5.6827,-5.6835,-5.6971,0,0,-5.6859,-5.6862,0,0,0,0,0,0,0,0,-5.6564,-5.6578,-5.6686,-5.6686,-5.6686,-5.675,-5.6752,-5.6857,-5.6737,-5.6716,-5.6726,-5.6721,-5.6802,-5.6811,-5.6838,-5.6976,-5.698,-5.686,-5.6864,-5.6868,-5.687,0,0,0,0,0,0,0,-5.6558,-5.6574,-5.6741,-5.6688,-5.6688,-5.6673,-5.6682,-5.6772,-5.6783,-5.6718,-5.6713,-5.6725,-5.6801,-5.6831,-5.684,-5.6981,-5.6859,-5.6867,-5.6871,-5.6875,-5.7237,-5.7242,0,0,0,0,0,0,-5.6552,-5.6569,-5.6738,-5.6743,-5.6613,-5.668,-5.669,-5.6734,-5.6781,-5.6785,-5.6729,-5.6722,-5.6819,-5.6831,-5.6843,-5.7007,-5.6868,-5.6875,-5.688,-5.7232,-5.7238,-5.7244,0,0,0,0,0,0,-5.6548,-5.6568,-5.6734,-5.6655,-5.6675,-5.6689,-5.6738,-5.6738,-5.6767,-5.679,-5.6792,-5.6757,-5.6817,-5.6832,-5.694,-5.701,-5.6879,-5.6886,-5.7227,-5.7234,-5.7241,-5.7336,0,0,0,0,0,0,-5.6541,-5.6567,-5.6618,-5.6657,-5.6679,-5.6829,-5.6742,-5.6743,-5.6781,-5.6773,-5.6817,-5.682,-5.6814,-5.6929,-5.6948,-5.7018,-5.6892,-5.722,-5.723,-5.7239,-5.7326,-5.7345,-5.7362,0,0,0,0,0,-5.6533,-5.6641,-5.6621,-5.6641,-5.6744,-5.6833,-5.6846,-5.6837,-5.6787,-5.6839,-5.6854,-5.6818,-5.6999,-5.694,-5.6962,-5.7035,-5.7216,-5.7227,-5.7238,-5.7319,-5.7342,-5.7361,0,0,0,0,0,0,-5.661,-5.6645,-5.6624,-5.6747,-5.6787,-5.6822,-5.6887,-5.6861,-5.6917,-5.6907,-5.6894,-5.6905,-5.7018,-5.7037,-5.6971,-5.7171,-5.71,-5.7116,-5.7154,-5.7176,-5.7193,-5.7186,-5.6899,0,0,0,0,0,-5.6641,-5.671,-5.6737,-5.6843,-5.6865,-5.6873,-5.6911,-5.6901,-5.6942,-5.6959,-5.6982,-5.7024,-5.709,-5.7134,-5.7196,-5.7329,-5.7339,-5.7391,-5.7408,-5.7422,-5.7436,-5.7509,-5.7533,-5.728,-5.7279,-5.7279,0,0,-5.6706,-5.6734,-5.6778,-5.686,-5.689,-5.6962,-5.6887,-5.6967,-5.7021,-5.6971,-5.7075,-5.7093,-5.714,-5.7261,-5.7316,-5.7281,-5.7509,-5.7436,-5.7448,-5.7454,-5.7523,-5.7547,-5.7569,-5.7287,-5.7286,-5.7284,0,0,-5.6862,-5.689,-5.6982,-5.7014,-5.706,-5.7065,-5.7088,-5.7126,-5.7137,-5.724,-5.7205,-5.727,-5.7384,-5.7419,-5.7452,-5.7623,-5.7593,-5.7644,-5.7736,-5.7807,-5.7827,-5.7845,-5.7907,-5.793,-5.7658,-5.7658,-5.7658,0,-5.6937,-5.7044,-5.7032,-5.7115,-5.7152,-5.7111,-5.7205,-5.7237,-5.7302,-5.7329,-5.7289,-5.7433,-5.7461,-5.7591,-5.7633,-5.7661,-5.7687,-5.7639,-5.7825,-5.7843,-5.7859,-5.7918,-5.7942,-5.7664,-5.7663,-5.7663,-5.7662,0,-5.7134,-5.721,-5.7278,-5.7342,-5.7388,-5.7475,-5.7478,-5.7526,-5.7512,-5.7522,-5.7629,-5.7662,-5.7731,-5.7761,-5.7748,-5.789,-5.7867,-5.7827,-5.7755,-5.7889,-5.7945,-5.7967,-5.7672,-5.767,-5.7668,-5.7667,0,0,-5.734,-5.7397,-5.7423,-5.7452,-5.7502,-5.756,-5.7647,-5.7714,-5.7756,-5.7802,-5.7876,-5.7974,-5.7938,-5.7975,-5.7966,-5.8029,-5.8165,-5.7981,-5.7982,-5.8015,-5.8324,-5.8354,-5.8381,-5.8145,-5.815,-5.8153,-5.8321,0,-5.7498,-5.7649,-5.7642,-5.7784,-5.7854,-5.7817,-5.7893,-5.7932,-5.7944,-5.8006,-5.8019,-5.809,-5.8036,-5.8058,-5.8119,-5.8135,-5.8227,-5.8123,-5.8214,-5.8218,-5.8204,-5.841,-5.8441,-5.8598,-5.8342,-5.8346,-5.8348,0,-5.7703,-5.7758,-5.7906,-5.7947,-5.7976,-5.8044,-5.8106,-5.8166,-5.821,-5.8215,-5.8258,-5.8239,-5.8329,-5.8255,-5.8379,-5.8309,-5.8346,-5.836,-5.8366,-5.8374,-5.8291,-5.8424,-5.8647,-5.8671,-5.8382,-5.838,-5.8377,0,-5.7839,-5.7949,-5.8053,-5.8079,-5.8129,-5.8178,-5.8201,-5.8241,-5.8283,-5.8338,-5.8365,-5.8429,-5.8465,-5.8516,-5.8516,-5.8462,-5.8642,-5.8568,-5.8649,-5.8649,-5.8688,-5.8685,-5.8921,-5.8712,-5.8711,-5.8711,-5.871,0,-5.8017,-5.811,-5.8114,-5.8178,-5.8281,-5.8273,-5.8376,-5.8394,-5.8431,-5.8499,-5.8471,-5.8535,-5.8531,-5.8597,-5.8598,-5.8701,-5.8717,-5.8724,-5.8723,-5.8726,-5.8726,-5.875,-5.874,-5.8717,-5.8716,-5.8715,-5.8713,0,-5.8186,-5.8192,-5.8303,-5.8342,-5.8354,-5.8428,-5.8462,-5.8523,-5.8533,-5.8619,-5.8639,-5.8655,-5.8731,-5.8736,-5.8824,-5.8825,-5.895,-5.8937,-5.8935,-5.8933,-5.9014,-5.9006,-5.9274,-5.9309,-5.9076,-5.9078,-5.908,0,-5.8299,-5.8369,-5.8416,-5.8459,-5.8486,-5.8555,-5.8598,-5.8594,-5.8639,-5.8697,-5.8751,-5.8825,-5.8883,-5.9006,-5.9026,-5.9093,-5.9082,-5.9171,-5.9092,-5.9094,-5.9085,-5.908,-5.9088,-5.9187,-5.9189,-5.9191,-5.9193,0,-5.8499,-5.85,-5.8562,-5.8626,-5.8678,-5.8728,-5.8775,-5.8812,-5.8814,-5.8867,-5.8944,-5.899,-5.908,-5.9153,-5.922,-5.9244,-5.922,-5.9218,-5.924,-5.9245,-5.9241,-5.9245,-5.8977,-5.9212,-5.921,-5.9208,-5.9207,-5.9207,-5.8644,-5.8705,-5.8749,-5.8819,-5.8854,-5.8899,-5.8959,-5.8977,-5.9042,-5.9114,-5.9108,-5.9194,-5.9239,-5.9326,-5.9356,-5.9424,-5.9394,-5.9426,-5.9434,-5.9443,-5.9451,-5.923,-5.9436,-5.9435,-5.9435,-5.9435,-5.9434,0,-5.8843,-5.887,-5.8935,-5.9002,-5.9058,-5.903,-5.9082,-5.9131,-5.9207,-5.925,-5.9309,-5.9398,-5.947,-5.9497,-5.9567,-5.9616,-5.9607,-5.9635,-5.9632,-5.9638,-5.9474,-5.9448,-5.9642,-5.9642,-5.9642,-5.9641,-5.9641,-5.9641,-5.8954,-5.9057,-5.9063,-5.9184,-5.921,-5.9293,-5.9325,-5.9367,-5.9402,-5.9504,-5.9563,-5.958,-5.9618,-5.9691,-5.9756,-5.9762,-5.979,-5.9823,-5.9824,-5.967,-5.9649,-5.9629,-5.9605,-5.9829,-5.9829,-5.9983,-5.9984,-5.9985]}]]